Torna al catalogo

METEOR 2-4

AttivoMeteoPO
NORAD 11288·PAYLOAD·🇷🇺 Russia

Lanciato Mar 1, 1979 da Plesetsk Cosmodrome

Loading…

Prossimi Passaggi (prossime 24 ore)

TLE

AggiornatoSource: Space-Track

Epoca: Sep 14, 2026, 10:00 UTC

1 11288U 79021A   26257.41682401 -.00000060  00000-0 -39509-4 0  9995
2 11288  81.2156  50.6163 0024293  44.4453 315.8662 14.12340394447614

Traccia METEOR 2-4 in tempo reale con AllMySat

Download on the App Store